WI1SKY Weather Reports


Display with metric or nautical units.
time (UTC)temp
F
wind
direction
speed
MPH
gust
MPH
rain 1hr
in
rain 24hr
in
rain mn
in
humidity
%
barometer
mb
20260901213405 88 215 0.0 0.0 0.00 0.00 0.00 63 1011.3
20260901212903 88 215 0.0 0.0 0.00 0.00 0.00 62 1011.4
20260901212403 88 215 0.0 0.0 0.00 0.00 0.00 59 1011.5
20260901211902 87 215 0.0 0.0 0.00 0.00 0.00 62 1011.5
20260901211520 87 215 0.0 0.0 0.00 0.00 0.00 62 1011.7
20260901211452 87 215 0.0 0.0 0.00 0.00 0.00 64 1011.6
20260901210401 87 215 0.0 0.0 0.00 0.00 0.00 61 1011.7
20260901205900 86 165 0.0 0.0 0.00 0.00 0.00 63 1011.7
20260901205401 86 302 0.0 0.0 0.00 0.00 0.00 63 1011.7
20260901204901 85 302 0.0 0.0 0.00 0.00 0.00 67 1011.7
20260901204710 86 302 0.0 0.0 0.00 0.00 0.00 68 1011.7
20260901203901 86 302 0.0 0.0 0.00 0.00 0.00 69 1011.8
20260901203401 86 302 0.0 0.0 0.00 0.00 0.00 69 1011.9
20260901202902 86 302 0.0 0.0 0.00 0.00 0.00 67 1011.8
20260901202401 87 302 0.0 0.0 0.00 0.00 0.00 68 1011.8
20260901201900 87 302 0.0 0.0 0.00 0.00 0.00 62 1011.8
20260901201402 88 302 0.0 0.0 0.00 0.00 0.00 59 1012.0
20260901200901 88 302 0.0 0.0 0.00 0.00 0.00 56 1012.0
20260901200401 88 302 0.0 0.0 0.00 0.00 0.00 59 1011.9
20260901195901 89 302 0.0 0.0 0.00 0.00 0.00 59 1012.0
20260901195400 89 302 0.0 0.0 0.00 0.00 0.00 60 1012.1
20260901194900 89 302 0.0 0.0 0.00 0.00 0.00 59 1012.4
20260901194400 90 302 0.0 0.0 0.00 0.00 0.00 56 1012.5
20260901193900 90 302 0.0 0.0 0.00 0.00 0.00 59 1012.5
20260901193710 90 302 1.0 3.0 0.00 0.00 0.00 49 1012.4
20260901192901 90 302 1.0 3.0 0.00 0.00 0.00 59 1012.5
20260901192401 90 265 1.0 3.0 0.00 0.00 0.00 57 1012.5
20260901191902 90 265 1.0 3.0 0.00 0.00 0.00 58 1012.4
20260901191401 89 265 1.0 3.0 0.00 0.00 0.00 58 1012.5
20260901191214 89 265 2.0 3.0 0.00 0.00 0.00 62 1012.4
20260901190400 89 265 1.0 3.0 0.00 0.00 0.00 64 1012.4
20260901185900 89 265 0.0 3.0 0.00 0.00 0.00 64 1012.4
20260901185401 88 254 0.0 2.0 0.00 0.00 0.00 63 1012.4
20260901184901 88 254 0.0 2.0 0.00 0.00 0.00 66 1012.4
20260901184401 88 254 1.0 4.0 0.00 0.00 0.00 65 1012.4
20260901183901 88 254 1.0 4.0 0.00 0.00 0.00 67 1012.5
20260901183401 88 241 1.0 3.0 0.00 0.00 0.00 66 1012.4
20260901182900 87 241 1.0 3.0 0.00 0.00 0.00 70 1012.5
20260901182401 87 241 1.0 3.0 0.00 0.00 0.00 71 1012.5
20260901181900 86 241 0.0 3.0 0.00 0.00 0.00 70 1012.5
20260901181401 86 257 0.0 1.0 0.00 0.00 0.00 76 1012.5
20260901180901 85 257 0.0 2.0 0.00 0.00 0.00 77 1012.4
20260901180402 85 182 0.0 2.0 0.00 0.00 0.00 75 1012.5
20260901180211 84 269 0.0 0.0 0.00 0.00 0.00 80 1012.6
20260901175708 84 269 0.0 0.0 0.00 0.00 0.00 80 1012.6
20260901174901 83 240 0.0 0.0 0.00 0.00 0.00 79 1012.7
20260901174400 83 240 0.0 0.0 0.00 0.00 0.00 80 1012.7
20260901173900 82 240 0.0 2.0 0.00 0.00 0.00 81 1012.8
20260901173402 82 240 0.0 2.0 0.00 0.00 0.00 83 1012.8
20260901172903 81 244 0.0 0.0 0.00 0.00 0.00 86 1012.9
20260901172402 81 244 0.0 0.0 0.00 0.00 0.00 88 1012.9
20260901171907 81 244 0.0 0.0 0.00 0.00 0.00 89 1012.9
20260901171402 81 244 0.0 0.0 0.00 0.00 0.00 91 1012.9
20260901171214 80 244 0.0 0.0 0.00 0.00 0.00 92 1012.9
20260901170353 80 244 0.0 0.0 0.00 0.00 0.00 93 1013.0
20260901165846 80 245 0.0 0.0 0.00 0.00 0.00 94 1013.0
20260901165342 79 239 0.0 0.0 0.00 0.00 0.00 94 1013.0
20260901164843 79 239 0.0 0.0 0.00 0.00 0.00 95 1012.9
20260901164340 79 239 0.0 0.0 0.00 0.00 0.00 95 1013.0
20260901163839 78 239 0.0 0.0 0.00 0.00 0.00 95 1013.0
20260901163339 78 239 0.0 2.0 0.00 0.00 0.00 95 1013.1
20260901162839 78 239 1.0 2.0 0.00 0.00 0.00 96 1013.0
20260901162340 77 239 1.0 3.0 0.00 0.00 0.00 96 1013.1
20260901161837 77 239 0.0 3.0 0.00 0.00 0.00 96 1013.1
20260901161337 77 214 0.0 0.0 0.00 0.00 0.00 96 1013.0
20260901160840 77 214 0.0 0.0 0.00 0.00 0.00 96 1012.9
20260901160338 77 214 0.0 0.0 0.00 0.00 0.00 96 1013.0
20260901155835 77 214 0.0 0.0 0.00 0.00 0.00 96 1013.1
20260901155335 77 214 0.0 0.0 0.00 0.00 0.00 96 1013.2
20260901155157 76 214 0.0 0.0 0.00 0.00 0.00 96 1013.1
20260901154332 76 214 0.0 0.0 0.00 0.00 0.00 96 1013.2
20260901153831 76 214 0.0 0.0 0.00 0.00 0.00 96 1013.3
20260901153332 76 214 0.0 0.0 0.00 0.00 0.00 96 1013.2
20260901152830 76 214 0.0 0.0 0.00 0.00 0.00 96 1013.2
20260901152329 75 214 0.0 0.0 0.00 0.00 0.00 96 1013.2
20260901151830 75 214 0.0 0.0 0.00 0.00 0.00 96 1013.1
20260901151331 75 214 0.0 0.0 0.00 0.00 0.00 96 1013.2
20260901150830 75 214 0.0 0.0 0.00 0.00 0.00 96 1013.2
20260901150331 75 214 0.0 0.0 0.00 0.00 0.00 96 1013.2
20260901145828 75 214 0.0 0.0 0.00 0.00 0.00 96 1013.2
20260901145632 75 214 0.0 0.0 0.00 0.00 0.00 96 1013.3
20260901144829 75 214 0.0 0.0 0.00 0.00 0.00 96 1013.3
20260901144633 75 214 0.0 0.0 0.00 0.00 0.00 96 1013.3
20260901143829 74 214 0.0 0.0 0.00 0.00 0.00 96 1013.3
20260901143329 74 214 0.0 0.0 0.00 0.00 0.00 96 1013.3
20260901142828 74 214 0.0 0.0 0.00 0.00 0.00 96 1013.3
20260901142329 74 214 0.0 0.0 0.00 0.00 0.00 96 1013.3
20260901141830 74 214 0.0 0.0 0.00 0.00 0.00 96 1013.2
20260901141633 74 214 0.0 0.0 0.00 0.00 0.00 96 1013.3
20260901140829 74 214 0.0 0.0 0.00 0.00 0.00 96 1013.2
20260901140328 74 214 0.0 0.0 0.00 0.00 0.00 96 1013.2
20260901135833 74 214 0.0 0.0 0.00 0.00 0.00 96 1013.2
20260901135334 74 214 0.0 0.0 0.00 0.00 0.00 96 1013.2
20260901134834 74 214 0.0 0.0 0.00 0.00 0.00 96 1013.3
20260901134329 74 214 0.0 0.0 0.00 0.00 0.00 96 1013.3
20260901133832 73 214 0.0 0.0 0.00 0.00 0.00 96 1013.3
20260901133329 73 214 0.0 0.0 0.00 0.00 0.00 96 1013.4
20260901133250 73 214 0.0 0.0 0.00 0.00 0.00 96 1013.3
20260901133243 73 214 0.0 0.0 0.00 0.00 0.00 96 1013.3
20260901131830 73 214 0.0 0.0 0.00 0.00 0.00 96 1013.3
20260901131334 73 214 0.0 0.0 0.00 0.00 0.00 96 1013.3
20260901130826 73 214 0.0 0.0 0.00 0.00 0.00 96 1013.3
20260901130323 73 214 0.0 0.0 0.00 0.00 0.00 96 1013.3
20260901125824 73 214 0.0 0.0 0.00 0.00 0.00 96 1013.4
20260901125624 73 214 0.0 0.0 0.00 0.00 0.00 96 1013.3
20260901124823 73 214 0.0 0.0 0.00 0.00 0.00 96 1013.3
20260901124320 73 214 0.0 0.0 0.00 0.00 0.00 96 1013.2
20260901123818 73 214 0.0 0.0 0.00 0.00 0.00 96 1013.2
20260901123318 73 214 0.0 0.0 0.00 0.00 0.00 96 1013.2
20260901122816 73 214 0.0 0.0 0.00 0.00 0.00 96 1013.1
20260901122319 73 214 0.0 0.0 0.00 0.00 0.00 96 1013.0
20260901121814 73 214 0.0 0.0 0.00 0.00 0.00 96 1013.0
20260901121314 73 214 0.0 0.0 0.00 0.00 0.00 96 1012.9
20260901120814 73 214 0.0 0.0 0.00 0.00 0.00 96 1012.9
20260901120313 73 214 0.0 0.0 0.00 0.00 0.00 96 1012.9
20260901120116 73 214 0.0 0.0 0.00 0.00 0.00 96 1012.9
20260901115611 72 214 0.0 0.0 0.00 0.00 0.00 96 1012.9
20260901114808 72 214 0.0 0.0 0.00 0.00 0.00 96 1012.8
20260901114306 72 214 0.0 0.0 0.00 0.00 0.00 96 1012.9
20260901113804 72 214 0.0 0.0 0.00 0.00 0.00 96 1012.8
20260901113304 72 214 0.0 0.0 0.00 0.00 0.00 95 1012.7
20260901112803 72 214 0.0 0.0 0.00 0.00 0.00 96 1012.6
20260901112306 72 214 0.0 0.0 0.00 0.00 0.00 96 1012.6
20260901111803 72 214 0.0 0.0 0.00 0.00 0.00 96 1012.5
20260901111302 72 214 0.0 0.0 0.00 0.00 0.00 96 1012.5
20260901110802 72 214 0.0 0.0 0.00 0.00 0.00 96 1012.5
20260901110303 72 214 0.0 0.0 0.00 0.00 0.00 96 1012.4
20260901110105 72 214 0.0 0.0 0.00 0.00 0.00 96 1012.5
20260901105305 71 214 0.0 0.0 0.00 0.00 0.00 95 1012.4
20260901105119 71 214 0.0 0.0 0.00 0.00 0.00 95 1012.4
20260901104303 71 214 0.0 0.0 0.00 0.00 0.00 95 1012.3
20260901103803 71 214 0.0 0.0 0.00 0.00 0.00 95 1012.3
20260901103303 71 214 0.0 0.0 0.00 0.00 0.00 95 1012.2
20260901102802 71 214 0.0 0.0 0.00 0.00 0.00 95 1012.2
20260901102559 72 214 0.0 0.0 0.00 0.00 0.00 95 1012.1
20260901102110 72 214 0.0 0.0 0.00 0.00 0.00 95 1012.0
20260901101423 72 214 0.0 0.0 0.00 0.00 0.00 95 1012.0
20260901101354 72 214 0.0 0.0 0.00 0.00 0.00 95 1012.1
20260901100304 72 214 0.0 0.0 0.00 0.00 0.00 95 1012.1
20260901095802 72 214 0.0 0.0 0.00 0.00 0.00 95 1012.1
20260901095559 72 214 0.0 0.0 0.00 0.00 0.00 95 1012.1
20260901094811 72 214 0.0 0.0 0.00 0.00 0.00 95 1012.0
20260901094302 72 214 0.0 0.0 0.00 0.00 0.00 95 1012.1
20260901093802 72 214 0.0 0.0 0.00 0.00 0.00 95 1012.1
20260901093301 72 214 0.0 0.0 0.00 0.00 0.00 95 1012.0
20260901092803 72 214 0.0 0.0 0.00 0.00 0.00 95 1012.0
20260901092606 72 214 0.0 0.0 0.00 0.00 0.00 95 1012.1
20260901091801 72 214 0.0 0.0 0.00 0.00 0.00 95 1012.0
20260901091301 72 214 0.0 0.0 0.00 0.00 0.00 95 1012.1
20260901090801 72 214 0.0 0.0 0.00 0.00 0.00 95 1012.0
20260901090303 72 214 0.0 0.0 0.00 0.00 0.00 95 1011.9
20260901085800 72 214 0.0 0.0 0.00 0.00 0.00 95 1011.9
20260901085305 72 214 0.0 0.0 0.00 0.00 0.00 95 1011.8
20260901084801 72 214 0.0 0.0 0.00 0.00 0.00 95 1011.7
20260901084304 72 214 0.0 0.0 0.00 0.00 0.00 95 1011.7
20260901083802 73 214 0.0 0.0 0.00 0.00 0.00 94 1011.7
20260901083301 73 214 0.0 0.0 0.00 0.00 0.00 95 1011.7
20260901082801 73 214 0.0 0.0 0.00 0.00 0.00 95 1011.7
20260901082301 73 214 0.0 0.0 0.00 0.00 0.00 95 1011.8
20260901081801 73 214 0.0 0.0 0.00 0.00 0.00 95 1011.8
20260901081346 73 214 0.0 0.0 0.00 0.00 0.00 95 1011.9
20260901080303 73 214 0.0 0.0 0.00 0.00 0.00 95 1012.0
20260901075804 73 214 0.0 0.0 0.00 0.00 0.00 95 1012.0
20260901075306 73 214 0.0 0.0 0.00 0.00 0.00 95 1011.9
20260901074803 73 214 0.0 0.0 0.00 0.00 0.00 95 1011.9
20260901074420 73 214 0.0 0.0 0.00 0.00 0.00 95 1012.0
20260901074353 73 214 0.0 0.0 0.00 0.00 0.00 95 1012.0
20260901073303 73 214 0.0 0.0 0.00 0.00 0.00 94 1012.0
20260901072802 73 214 0.0 0.0 0.00 0.00 0.00 94 1011.9
20260901072308 74 214 0.0 0.0 0.00 0.00 0.00 95 1012.0
20260901071803 74 214 0.0 0.0 0.00 0.00 0.00 95 1012.0
20260901071304 73 214 0.0 0.0 0.00 0.00 0.00 95 1012.0
20260901070802 73 214 0.0 0.0 0.00 0.00 0.00 94 1012.0
20260901070303 73 214 0.0 0.0 0.00 0.00 0.00 94 1012.0
20260901065802 73 214 0.0 0.0 0.00 0.00 0.00 94 1012.0
20260901065305 73 214 0.0 0.0 0.00 0.00 0.00 94 1012.0
20260901064926 73 214 0.0 0.0 0.00 0.00 0.00 94 1011.9
20260901064855 73 214 0.0 0.0 0.00 0.00 0.00 94 1011.9
20260901063802 73 214 0.0 0.0 0.00 0.00 0.00 94 1011.9
20260901063303 73 214 0.0 0.0 0.00 0.00 0.00 94 1011.9
20260901062802 73 214 0.0 0.0 0.00 0.00 0.00 93 1011.9
20260901062309 73 214 0.0 0.0 0.00 0.00 0.00 93 1012.0
20260901062113 73 214 0.0 0.0 0.00 0.00 0.00 93 1011.9
20260901061615 74 214 0.0 0.0 0.00 0.00 0.00 93 1011.9
20260901060801 74 214 0.0 0.0 0.00 0.00 0.00 92 1011.9
20260901060614 74 214 0.0 0.0 0.00 0.00 0.00 92 1011.8
20260901055803 75 214 0.0 0.0 0.00 0.00 0.00 93 1011.8
20260901055616 75 214 0.0 0.0 0.00 0.00 0.00 93 1011.8
20260901054801 75 214 0.0 0.0 0.00 0.00 0.00 94 1011.7
20260901054301 75 214 0.0 0.0 0.00 0.00 0.00 94 1011.7
20260901053802 75 214 0.0 0.0 0.00 0.00 0.00 94 1011.7
20260901053611 75 214 0.0 0.0 0.00 0.00 0.00 94 1011.6
20260901052800 75 214 0.0 0.0 0.00 0.00 0.00 94 1011.6
20260901052610 75 214 0.0 0.0 0.00 0.00 0.00 93 1011.6
20260901051801 75 214 0.0 0.0 0.00 0.00 0.00 93 1011.5
20260901051301 75 214 0.0 0.0 0.00 0.00 0.00 93 1011.4
20260901050800 75 214 0.0 0.0 0.00 0.00 0.00 93 1011.6
20260901050300 75 214 0.0 0.0 0.00 0.00 0.00 93 1011.6
20260901045801 75 214 0.0 0.0 0.00 0.00 0.00 92 1011.6
20260901045301 76 214 0.0 0.0 0.00 0.00 0.00 92 1011.5
20260901044800 76 214 0.0 0.0 0.00 0.00 0.00 93 1011.5
20260901044300 76 214 0.0 0.0 0.00 0.00 0.00 93 1011.5
20260901043801 76 214 0.0 0.0 0.00 0.00 0.00 93 1011.4
20260901043301 76 214 0.0 0.0 0.00 0.00 0.00 93 1011.4
20260901042801 76 214 0.0 0.0 0.00 0.00 0.00 93 1011.5
20260901042305 76 214 0.0 0.0 0.00 0.00 0.00 93 1011.4
20260901041801 76 214 0.0 0.0 0.00 0.00 0.00 93 1011.3
20260901041301 77 214 0.0 0.0 0.00 0.00 0.00 92 1011.1
20260901041120 77 214 0.0 0.0 0.00 0.00 0.00 92 1011.2
20260901040607 77 214 0.0 0.0 0.00 0.00 0.00 92 1011.2
20260901035801 77 214 0.0 0.0 0.00 0.00 0.00 91 1011.2
20260901035305 77 214 0.0 0.0 0.00 0.00 0.00 91 1011.2
20260901034800 78 214 0.0 0.0 0.00 0.00 0.00 91 1011.1
20260901034301 78 214 0.0 0.0 0.00 0.00 0.00 91 1011.2
20260901033801 78 214 0.0 0.0 0.00 0.00 0.00 91 1011.1
20260901033300 78 214 0.0 0.0 0.00 0.00 0.00 91 1011.1
20260901032801 78 214 0.0 0.0 0.00 0.00 0.00 91 1011.2
20260901032301 78 214 0.0 0.0 0.00 0.00 0.00 90 1011.2
20260901032116 78 214 0.0 0.0 0.00 0.00 0.00 90 1011.2
20260901031613 79 214 0.0 0.0 0.00 0.00 0.00 90 1011.3
20260901030802 79 214 0.0 0.0 0.00 0.00 0.00 90 1011.3
20260901030305 79 214 0.0 0.0 0.00 0.00 0.00 90 1011.4
20260901025801 79 214 0.0 0.0 0.00 0.00 0.00 90 1011.3
20260901025305 79 214 0.0 0.0 0.00 0.00 0.00 89 1011.3
20260901024803 79 214 0.0 0.0 0.00 0.00 0.00 89 1011.2
20260901024302 79 214 0.0 0.0 0.00 0.00 0.00 89 1011.2
20260901024115 80 214 0.0 0.0 0.00 0.00 0.00 89 1011.1
20260901023302 80 214 0.0 0.0 0.00 0.00 0.00 89 1011.1
20260901022801 80 214 0.0 0.0 0.00 0.00 0.00 88 1011.2
20260901022305 80 214 0.0 0.0 0.00 0.00 0.00 88 1011.2
20260901022119 80 214 0.0 0.0 0.00 0.00 0.00 88 1011.2
20260901021303 80 214 0.0 0.0 0.00 0.00 0.00 88 1011.2
20260901020806 80 214 0.0 0.0 0.00 0.00 0.00 87 1011.2
20260901020355 81 214 0.0 0.0 0.00 0.00 0.00 87 1011.1
20260901015305 81 214 0.0 0.0 0.00 0.00 0.00 87 1011.1
20260901015228 81 214 0.0 0.0 0.00 0.00 0.00 86 1010.9
20260901015221 81 214 0.0 0.0 0.00 0.00 0.00 87 1011.0
20260901013803 81 214 0.0 0.0 0.00 0.00 0.00 87 1010.8
20260901013302 81 214 0.0 0.0 0.00 0.00 0.00 86 1010.8
20260901012806 82 214 0.0 0.0 0.00 0.00 0.00 86 1010.7
20260901012306 82 214 0.0 0.0 0.00 0.00 0.00 86 1010.7
20260901011803 82 214 0.0 0.0 0.00 0.00 0.00 85 1010.7
20260901011303 82 214 0.0 0.0 0.00 0.00 0.00 85 1010.7
20260901010804 82 214 0.0 0.0 0.00 0.00 0.00 85 1010.6
20260901010303 83 214 0.0 0.0 0.00 0.00 0.00 84 1010.6
20260901005803 83 214 0.0 0.0 0.00 0.00 0.00 84 1010.4
20260901005306 83 214 0.0 0.0 0.00 0.00 0.00 83 1010.5
20260901004801 83 214 0.0 0.0 0.00 0.00 0.00 83 1010.5
20260901004302 84 214 0.0 0.0 0.00 0.00 0.00 82 1010.4
20260901003801 84 214 0.0 0.0 0.00 0.00 0.00 82 1010.4
20260901003302 84 214 0.0 0.0 0.00 0.01 0.00 81 1010.3
20260901002807 84 214 0.0 0.0 0.00 0.01 0.00 81 1010.3
20260901002611 85 214 0.0 0.0 0.00 0.01 0.00 80 1010.3
20260901001801 85 214 0.0 0.0 0.00 0.03 0.00 80 1010.4
20260901001302 85 214 0.0 0.0 0.00 0.06 0.00 80 1010.3
20260901000920 85 214 0.0 0.0 0.00 0.09 0.00 80 1010.3
20260901000851 85 214 0.0 0.0 0.00 0.09 0.00 80 1010.3
20260831235801 85 214 0.0 0.0 0.00 0.09 0.00 79 1010.3
20260831235302 85 214 0.0 2.0 0.00 0.09 0.00 79 1010.3
20260831235106 85 214 1.0 2.0 0.00 0.09 0.00 78 1010.3
20260831234300 85 214 1.0 3.0 0.00 0.09 0.00 78 1010.3
20260831233758 85 214 2.0 3.0 0.00 0.09 0.00 78 1010.1
20260831233556 85 214 2.0 3.0 0.00 0.09 0.00 78 1010.0
20260831232749 86 215 2.0 4.0 0.00 0.09 0.00 78 1009.9
20260831232246 86 215 1.0 4.0 0.00 0.09 0.00 77 1009.9
20260831231746 86 195 1.0 2.0 0.00 0.09 0.00 77 1009.9
20260831231245 86 196 1.0 3.0 0.00 0.09 0.00 77 1010.0
20260831230744 86 196 2.0 3.0 0.00 0.09 0.00 76 1010.0
20260831230550 86 196 2.0 4.0 0.00 0.09 0.00 77 1009.9
20260831225740 86 196 2.0 4.0 0.00 0.09 0.00 76 1009.9
20260831225240 86 223 1.0 3.0 0.00 0.09 0.00 76 1009.8
20260831224740 86 225 1.0 3.0 0.00 0.09 0.00 76 1009.8
20260831224537 86 223 2.0 3.0 0.00 0.09 0.00 77 1009.7
20260831223742 86 227 2.0 4.0 0.00 0.09 0.00 77 1009.7
20260831223240 85 229 3.0 4.0 0.00 0.09 0.00 77 1009.7
20260831222739 85 191 2.0 4.0 0.00 0.09 0.00 77 1009.6
20260831222236 85 196 3.0 5.0 0.00 0.09 0.00 77 1009.7
20260831221736 85 196 3.0 5.0 0.00 0.09 0.00 76 1009.6
20260831221234 85 190 2.0 4.0 0.00 0.09 0.00 77 1009.5
20260831221036 85 190 2.0 4.0 0.00 0.09 0.00 76 1009.6
20260831220232 85 192 2.0 4.0 0.00 0.09 0.00 77 1009.6
20260831215732 85 194 2.0 4.0 0.00 0.09 0.00 76 1009.6
20260831215229 85 192 2.0 4.0 0.00 0.09 0.00 76 1009.6
20260831215030 85 198 1.0 3.0 0.00 0.09 0.00 78 1009.7
20260831214229 85 201 1.0 2.0 0.00 0.09 0.00 79 1009.7